| time (UTC) | temp F | wind direction | speed MPH | gust MPH | rain 1hr in | rain 24hr in | rain mn in | humidity % | barometer mb |
| 20260902091531 | 0 | 0.0 | 0.0 | 0.00 | 0.00 | 0.00 | 1014.4 | ||
| 20260902090010 | 0 | 0.0 | 0.0 | 0.00 | 0.00 | 0.00 | 1014.4 | ||
| 20260902084508 | 0 | 0.0 | 0.0 | 0.00 | 0.00 | 0.00 | 1014.5 | ||
| 20260902083002 | 0 | 0.0 | 0.0 | 0.00 | 0.00 | 0.00 | 1014.5 | ||
| 20260902081558 | 0 | 0.0 | 0.0 | 0.00 | 0.00 | 0.00 | 1014.4 | ||
| 20260902080105 | 0 | 0.0 | 0.0 | 0.00 | 0.00 | 0.00 | 1014.4 | ||
| 20260902074551 | 0 | 0.0 | 0.0 | 0.00 | 0.00 | 0.00 | 1014.6 | ||
| 20260902073057 | 0 | 0.0 | 0.0 | 0.00 | 0.00 | 0.00 | 1014.5 | ||
| 20260902071558 | 0 | 0.0 | 0.0 | 0.00 | 0.00 | 0.00 | 1014.8 | ||
| 20260902070039 | 0 | 0.0 | 0.0 | 0.00 | 0.00 | 0.00 | 1014.8 | ||
| 20260902064536 | 74 | 6 | 0.0 | 0.0 | 0.00 | 0.00 | 0.00 | 93 | 1014.8 |
| 20260902063042 | 75 | 6 | 0.0 | 0.0 | 0.00 | 0.00 | 0.00 | 93 | 1015.0 |
| 20260902061541 | 75 | 6 | 0.0 | 0.0 | 0.00 | 0.00 | 0.00 | 93 | 1015.3 |
| 20260902060032 | 75 | 6 | 0.0 | 0.0 | 0.00 | 0.00 | 0.00 | 93 | 1015.3 |
| 20260902054535 | 75 | 6 | 0.0 | 0.0 | 0.00 | 0.00 | 0.00 | 93 | 1015.4 |
| 20260902053027 | 75 | 6 | 0.0 | 0.0 | 0.00 | 0.00 | 0.00 | 93 | 1015.4 |
| 20260902051529 | 75 | 6 | 0.0 | 0.0 | 0.00 | 0.00 | 0.00 | 93 | 1015.4 |
| 20260902050030 | 75 | 6 | 0.0 | 0.0 | 0.00 | 0.00 | 0.00 | 93 | 1015.5 |
| 20260902044526 | 75 | 6 | 0.0 | 0.0 | 0.00 | 0.00 | 0.00 | 93 | 1015.5 |
| 20260902043016 | 76 | 6 | 0.0 | 0.0 | 0.00 | 0.00 | 0.00 | 93 | 1015.6 |
| 20260902041514 | 76 | 6 | 0.0 | 0.0 | 0.00 | 0.00 | 0.00 | 93 | 1015.8 |
| 20260902040008 | 76 | 12 | 0.0 | 0.0 | 0.00 | 0.00 | 0.00 | 93 | 1016.0 |
| 20260902034506 | 76 | 12 | 0.0 | 0.0 | 0.00 | 0.00 | 0.00 | 93 | 1016.0 |
| 20260902033004 | 77 | 12 | 0.0 | 0.0 | 0.00 | 0.00 | 0.00 | 92 | 1015.9 |
| 20260902031503 | 77 | 13 | 0.0 | 0.0 | 0.00 | 0.00 | 0.00 | 92 | 1016.2 |
| 20260902030002 | 76 | 12 | 0.0 | 0.0 | 0.00 | 0.00 | 0.00 | 93 | 1016.2 |
| 20260902024604 | 76 | 13 | 0.0 | 0.0 | 0.00 | 0.00 | 0.00 | 92 | 1016.2 |
| 20260902023004 | 76 | 12 | 0.0 | 0.0 | 0.00 | 0.00 | 0.00 | 92 | 1016.1 |
| 20260902021501 | 77 | 13 | 0.0 | 0.0 | 0.00 | 0.00 | 0.00 | 92 | 1015.8 |
| 20260902020100 | 77 | 351 | 0.0 | 0.0 | 0.00 | 0.00 | 0.00 | 92 | 1015.9 |
| 20260902014600 | 76 | 352 | 0.0 | 0.0 | 0.00 | 0.00 | 0.00 | 92 | 1015.9 |
| 20260902013059 | 76 | 352 | 0.0 | 0.0 | 0.00 | 0.00 | 0.00 | 92 | 1015.5 |
| 20260902011603 | 76 | 352 | 0.0 | 0.0 | 0.00 | 0.00 | 0.00 | 92 | 1015.5 |
| 20260902010118 | 76 | 351 | 0.0 | 0.0 | 0.00 | 0.00 | 0.00 | 91 | 1015.3 |
| 20260902004559 | 76 | 352 | 0.0 | 0.0 | 0.00 | 0.04 | 0.00 | 91 | 1015.3 |
| 20260902003055 | 76 | 352 | 0.0 | 0.0 | 0.00 | 0.04 | 0.00 | 91 | 1015.4 |
| 20260902001556 | 77 | 351 | 0.0 | 0.0 | 0.00 | 0.04 | 0.00 | 91 | 1015.4 |
| 20260902000054 | 77 | 352 | 0.0 | 0.0 | 0.00 | 0.04 | 0.00 | 90 | 1015.6 |
| 20260901234553 | 77 | 332 | 0.0 | 0.0 | 0.00 | 0.04 | 0.00 | 90 | 1015.8 |
| 20260901233100 | 77 | 319 | 0.0 | 1.0 | 0.00 | 0.04 | 0.00 | 91 | 1015.8 |
| 20260901231556 | 77 | 323 | 0.0 | 0.0 | 0.00 | 0.04 | 0.00 | 91 | 1015.8 |
| 20260901230053 | 77 | 278 | 0.0 | 1.0 | 0.00 | 0.04 | 0.00 | 91 | 1015.5 |
| 20260901224552 | 79 | 325 | 0.0 | 1.0 | 0.00 | 0.04 | 0.00 | 89 | 1015.4 |
| 20260901223054 | 80 | 351 | 0.0 | 3.0 | 0.00 | 0.04 | 0.00 | 87 | 1015.8 |
| 20260901221551 | 82 | 213 | 0.0 | 0.0 | 0.00 | 0.04 | 0.00 | 84 | 1015.8 |
| 20260901220051 | 85 | 70 | 0.0 | 0.0 | 0.00 | 0.04 | 0.00 | 83 | 1015.4 |
| 20260901214549 | 85 | 70 | 0.0 | 0.0 | 0.00 | 0.04 | 0.00 | 82 | 1015.0 |
| 20260901213048 | 85 | 186 | 0.0 | 0.0 | 0.00 | 0.04 | 0.00 | 84 | 1014.6 |
| 20260901211548 | 85 | 68 | 0.0 | 0.0 | 0.00 | 0.04 | 0.00 | 83 | 1014.2 |
| 20260901210046 | 85 | 71 | 0.0 | 0.0 | 0.00 | 0.04 | 0.00 | 83 | 1014.2 |
| 20260901204545 | 86 | 76 | 0.0 | 0.0 | 0.00 | 0.04 | 0.00 | 82 | 1014.5 |
| 20260901203046 | 88 | 70 | 0.0 | 0.0 | 0.00 | 0.04 | 0.00 | 80 | 1014.1 |
| 20260901201545 | 88 | 72 | 0.0 | 1.0 | 0.00 | 0.04 | 0.00 | 79 | 1014.1 |
| 20260901200101 | 88 | 75 | 0.0 | 0.0 | 0.00 | 0.04 | 0.00 | 80 | 1014.1 |
| 20260901194554 | 89 | 75 | 0.0 | 1.0 | 0.00 | 0.04 | 0.00 | 79 | 1014.6 |
| 20260901193041 | 88 | 78 | 0.0 | 0.0 | 0.00 | 0.04 | 0.00 | 80 | 1015.0 |
| 20260901191540 | 88 | 39 | 0.0 | 0.0 | 0.00 | 0.04 | 0.00 | 80 | 1015.1 |
| 20260901190046 | 89 | 88 | 0.0 | 0.0 | 0.00 | 0.04 | 0.00 | 77 | 1015.1 |
| 20260901184539 | 89 | 195 | 0.0 | 0.0 | 0.00 | 0.04 | 0.00 | 77 | 1015.3 |
| 20260901183042 | 89 | 90 | 0.0 | 0.0 | 0.00 | 0.04 | 0.00 | 77 | 1015.6 |
| 20260901181538 | 88 | 65 | 0.0 | 0.0 | 0.00 | 0.04 | 0.00 | 77 | 1015.8 |
| 20260901180038 | 88 | 82 | 0.0 | 1.0 | 0.00 | 0.04 | 0.00 | 78 | 1015.7 |
| 20260901174548 | 88 | 67 | 0.0 | 1.0 | 0.00 | 0.04 | 0.00 | 79 | 1015.8 |
| 20260901173038 | 87 | 72 | 0.0 | 0.0 | 0.00 | 0.04 | 0.00 | 80 | 1016.1 |
| 20260901171536 | 88 | 75 | 0.0 | 1.0 | 0.00 | 0.04 | 0.00 | 79 | 1016.3 |
| 20260901170101 | 88 | 107 | 0.0 | 0.0 | 0.00 | 0.04 | 0.00 | 78 | 1016.4 |
| 20260901164533 | 88 | 92 | 0.0 | 0.0 | 0.00 | 0.04 | 0.00 | 78 | 1016.7 |
| 20260901163031 | 89 | 1 | 0.0 | 0.0 | 0.00 | 0.04 | 0.00 | 77 | 1016.7 |
| 20260901161527 | 88 | 60 | 0.0 | 0.0 | 0.00 | 0.04 | 0.00 | 80 | 1016.8 |
| 20260901160033 | 87 | 74 | 0.0 | 0.0 | 0.00 | 0.04 | 0.00 | 80 | 1016.7 |
| 20260901154525 | 87 | 23 | 0.0 | 0.0 | 0.00 | 0.04 | 0.00 | 81 | 1016.6 |
| 20260901153023 | 87 | 68 | 0.0 | 0.0 | 0.00 | 0.04 | 0.00 | 80 | 1016.7 |
| 20260901151523 | 87 | 68 | 0.0 | 0.0 | 0.00 | 0.04 | 0.00 | 80 | 1016.8 |
| 20260901150022 | 87 | 28 | 0.0 | 0.0 | 0.00 | 0.04 | 0.00 | 80 | 1016.6 |
| 20260901144521 | 87 | 41 | 0.0 | 0.0 | 0.00 | 0.04 | 0.00 | 79 | 1016.5 |
| 20260901143017 | 86 | 68 | 0.0 | 0.0 | 0.00 | 0.04 | 0.00 | 82 | 1016.5 |
| 20260901141512 | 85 | 1 | 0.0 | 1.0 | 0.00 | 0.04 | 0.00 | 85 | 1016.7 |
| 20260901140009 | 83 | 6 | 0.0 | 0.0 | 0.00 | 0.04 | 0.00 | 88 | 1016.5 |
| 20260901134505 | 82 | 329 | 0.0 | 0.0 | 0.00 | 0.04 | 0.00 | 89 | 1016.3 |
| 20260901133100 | 81 | 345 | 0.0 | 0.0 | 0.00 | 0.04 | 0.00 | 90 | 1016.3 |
| 20260901131617 | 80 | 136 | 0.0 | 1.0 | 0.00 | 0.04 | 0.00 | 91 | 1016.4 |
| 20260901130100 | 80 | 136 | 0.0 | 0.0 | 0.00 | 0.04 | 0.00 | 91 | 1016.3 |
| 20260901124552 | 80 | 137 | 0.0 | 0.0 | 0.00 | 0.04 | 0.00 | 92 | 1016.0 |
| 20260901123048 | 79 | 137 | 0.0 | 0.0 | 0.00 | 0.04 | 0.00 | 92 | 1015.8 |
| 20260901121547 | 79 | 159 | 0.0 | 0.0 | 0.00 | 0.04 | 0.00 | 93 | 1015.8 |
| 20260901120043 | 78 | 159 | 0.0 | 0.0 | 0.00 | 0.04 | 0.00 | 93 | 1015.5 |
| 20260901114542 | 78 | 159 | 0.0 | 0.0 | 0.00 | 0.04 | 0.00 | 93 | 1015.4 |
| 20260901113039 | 0 | 0.0 | 0.0 | 0.00 | 0.04 | 0.00 | 1015.3 | ||
| 20260901111535 | 0 | 0.0 | 0.0 | 0.00 | 0.04 | 0.00 | 1015.2 | ||
| 20260901110031 | 0 | 0.0 | 0.0 | 0.00 | 0.04 | 0.00 | 1015.2 | ||
| 20260901104529 | 0 | 0.0 | 0.0 | 0.00 | 0.04 | 0.00 | 1015.0 | ||
| 20260901103021 | 0 | 0.0 | 0.0 | 0.00 | 0.04 | 0.00 | 1014.8 | ||
| 20260901101517 | 0 | 0.0 | 0.0 | 0.00 | 0.04 | 0.00 | 1014.7 | ||
| 20260901100013 | 0 | 0.0 | 0.0 | 0.00 | 0.04 | 0.00 | 1014.9 | ||
| 20260901094509 | 0 | 0.0 | 0.0 | 0.00 | 0.04 | 0.00 | 1014.8 | ||
| 20260901093004 | 0 | 0.0 | 0.0 | 0.00 | 0.04 | 0.00 | 1014.7 |